Location: ??????????
(54.5071°N, 39.4903°E)
Time: 05:28:11
(UTC+00:00)

Daily predictions for brighter satellites

Satellite Brightness Start Highest point End
(mag) Time Altitude Azimuth Time Altitude Azimuth Time Altitude Azimuth
KORONAS-FOTON 4.4 00:05:10 27° WSW 00:06:06 33° WNW 00:09:12 10° N
USA 290 3.5 00:05:18 18° SSE 00:07:09 34° ESE 00:10:04 10° NE
Cosmos 372 Rocket 4.1 00:02:18 10° NNW 00:07:31 76° ENE 00:12:39 10° SSE
DMSP B5D2-2 4.0 00:04:38 10° S 00:09:45 67° WSW 00:14:57 10° NNW
Cosmos 1536 4.4 00:09:41 10° NW 00:12:02 16° W 00:12:16 16° W
IDEFIX/ARIANE 42P 3.1 00:08:27 10° N 00:13:24 46° WNW 00:16:41 20° SW
Cosmos 1812 Rocket 3.5 00:12:34 21° SSW 00:15:25 74° WNW 00:19:47 10° N
Meteor 2-20 4.4 00:10:34 15° S 00:15:52 87° W 00:22:03 10° NNE
Envisat 3.1 00:11:36 10° NNE 00:16:43 76° ESE 00:21:15 13° S
COSMOS 2441 4.3 00:12:17 10° NNE 00:17:05 74° WNW 00:20:35 18° SSW
ATLAS 2AS CENTAUR R/B 3.7 00:11:32 10° W 00:18:00 42° NNW 00:24:25 10° ENE
Aureole 1 Rocket 3.0 00:14:32 10° NNW 00:18:29 72° WSW 00:23:27 10° SSE
USA 234 3.3 00:15:57 10° SE 00:22:23 58° SW 00:28:52 10° WNW
JB-3 4.2 00:22:45 10° SSE 00:26:21 80° ENE 00:29:58 10° NNW
Cosmos 2084 Rocket 4.0 00:23:12 10° WNW 00:27:02 34° SW 00:30:52 10° SSE
Meteor 1-27 Rocket 4.0 00:21:22 10° S 00:27:17 75° E 00:33:13 10° NNE
Iridium 4 Rocket 3.4 00:23:28 15° SSW 00:27:25 69° W 00:32:35 10° N
ADEOS II 2.6 00:24:21 10° NNE 00:29:33 60° ESE 00:34:43 10° S
MOZ.5/SAFIR/RUBIN 5/SL-8 4.5 00:27:09 17° SSW 00:30:09 34° W 00:34:24 10° NNW
Cosmos 990 Rocket 4.4 00:25:26 10° NW 00:30:11 39° WSW 00:34:56 10° S
SWARM A 4.3 00:28:11 10° N 00:31:24 56° W 00:33:48 16° SSW
Cosmos 1707 4.4 00:31:24 10° WNW 00:32:09 11° WNW 00:33:07 10° NW
Cosmos 44 Rocket 4.0 00:29:47 14° WSW 00:33:58 50° NNW 00:39:03 10° NE
H-2A R/B 2.4 00:31:28 12° S 00:34:36 45° W 00:38:04 10° NNW
ADEOS Rocket 3.7 00:27:30 10° NNE 00:34:51 62° WNW 00:41:53 13° SW
Cosmos 1975 3.9 00:32:06 10° NW 00:34:59 22° W 00:36:20 18° WSW
ALOS 2.2 00:32:20 10° NNE 00:36:56 87° ESE 00:41:29 10° SSW
COSMOS 2406 3.8 00:32:29 15° WSW 00:37:01 48° NW 00:42:36 10° NNE
SL-16 R/B 3.0 00:30:58 10° SSE 00:37:10 68° ENE 00:43:24 10° NNW
Cosmos 1763 Rocket 3.6 00:33:22 16° SW 00:37:40 75° WNW 00:43:00 10° NNE
CZ-2D R/B 2.1 00:32:26 10° NNE 00:37:43 87° ESE 00:43:02 10° SSW
Cosmos 1842 Rocket 4.4 00:33:38 10° SSE 00:37:46 48° E 00:41:57 10° NNE
COSMOS 2428 3.0 00:32:05 10° NNW 00:37:50 73° NE 00:43:31 10° SE
Alouette 2 Rocket 3.4 00:35:10 10° NNW 00:39:29 59° W 00:43:01 10° S
Cosmos 1238 Rocket 1.9 00:39:50 14° S 00:42:14 87° W 00:45:19 10° N
Okean 3 Rocket 4.0 00:42:45 10° N 00:47:11 66° ENE 00:51:37 10° SSE
Sich 1 3.3 00:43:41 10° N 00:47:51 68° ENE 00:51:58 10° SSE
Cosmos 1898 Rocket 3.4 00:43:04 10° NNW 00:48:14 73° WSW 00:53:22 10° SSE
SL-19 R/B 4.5 00:44:32 10° NNE 00:50:12 83° ESE 00:56:09 10° SSW
Cosmos 1937 Rocket 3.5 00:47:40 10° NNW 00:52:55 86° WSW 00:58:05 10° SSE
Cosmos 1607 4.5 00:47:22 11° WSW 00:53:11 53° NNW 00:59:23 10° NE
Cosmos 2360 Rocket 3.1 00:48:34 10° NW 00:53:16 27° WSW 00:57:57 10° SSW
Cosmos 1758 4.1 00:49:59 10° N 00:53:33 49° ENE 00:57:05 10° SSE
Cosmos 2333 Rocket 3.6 00:50:20 10° WNW 00:53:55 17° W 00:57:04 11° SW
Meteor 2-10 Rocket 3.5 00:56:14 10° NNW 01:01:19 76° W 01:06:33 10° S
Cosmos 1553 Rocket 4.2 00:58:19 10° S 01:04:30 79° E 01:10:51 10° NNE
Cosmos 2082 Rocket 3.8 01:00:36 10° W 01:05:17 25° NNW 01:09:59 10° NNE
Cosmos 540 Rocket 3.8 01:01:37 11° SW 01:06:29 53° NW 01:11:32 10° NNE
Resurs 1-4 Rocket 2.4 01:01:21 10° N 01:06:32 55° WNW 01:11:41 10° SW
H-2A R/B 3.0 01:03:37 10° NNE 01:07:31 44° E 01:11:19 10° S
Cosmos 2322 Rocket 3.4 01:04:19 10° NW 01:08:18 20° W 01:12:18 10° SW
Cosmos 2221 4.0 01:07:42 10° WSW 01:10:48 20° WNW 01:13:56 10° NNW
Cosmos 468 Rocket 4.1 01:07:04 10° SSW 01:12:21 74° WNW 01:17:41 10° NNE
ACS3 Solar Sail 3.7 01:09:42 10° NNW 01:13:03 16° NW 01:16:26 10° W
CZ-2C R/B 4.0 01:11:21 10° NNE 01:15:53 36° E 01:20:17 10° SSE
Cosmos 1833 4.3 01:12:25 10° SW 01:18:08 69° NW 01:23:49 10° NNE
USA 305 -0.6 01:16:40 10° W 01:18:28 75° S 01:19:19 10° ESE
Cosmos 1766 Rocket 4.5 01:15:03 10° NNW 01:18:49 29° W 01:22:33 10° SSW
NOSS 3-3 (A) 4.4 01:14:41 10° WSW 01:20:12 56° NNW 01:26:57 10° NE
Cosmos 1340 Rocket 4.0 01:17:08 10° N 01:20:45 44° ENE 01:24:22 10° SE
H-2A R/B 2.3 01:16:17 10° N 01:21:17 56° WNW 01:26:22 10° SW
Cosmos 2219 Rocket 3.1 01:17:59 10° NW 01:22:33 26° WSW 01:27:06 10° SSW
Cosmos 2237 Rocket 2.6 01:17:18 10° NNW 01:23:01 71° NE 01:28:42 10° SE
Cosmos 1980 4.0 01:19:12 10° NNW 01:24:53 76° NE 01:30:33 10° SE
USA 267 3.4 01:19:46 10° ENE 01:26:23 81° SSE 01:32:58 10° WSW
BREEZE-M DEB (TANK) 4.4 01:22:03 10° WSW 01:40:02 54° S 01:44:14 10° E
